Temperature
17 17 17 18 17 17 17 18 17 17 17 17 17 17 17 17 16 16 16 16 16 16 15 15 15 15 15 15 15 14 14 14 14 14 15 15 15 15 15 15 15 16 16
17 17 17 17 17 17 17 17 17 17 17 17 17 17 17 17 16 16 16 16 16 15 15 15 15 15 14 14 14 14 14 14 14 14 14 14 15 14 15 15 15 15 15
17 17 17 17 17 17 17 18 17 17 17 17 17 17 17 16 16 16 16 16 15 15 15 15 14 14 14 14 14 14 14 13 13 13 13 13 13 14 14 14 14 14 14
18 18 18 18 18 18 18 18 17 17 17 17 17 17 17 16 16 16 16 15 15 15 15 14 14 14 14 13 13 13 13 13 13 13 12 12 12 12 13 14 14 14 14
18 18 18 18 18 18 18 18 17 17 17 17 17 16 16 16 16 16 15 15 15 15 14 14 14 13 13 13 13 13 12 12 12 12 12 12 12 12 12 12 13 13 14
18 18 18 18 18 18 18 18 17 17 17 17 16 16 16 16 16 15 15 15 14 14 14 14 13 13 13 13 12 12 12 12 12 12 11 11 11 11 11 11 12 12 13
18 18 18 18 18 18 18 18 17 17 17 17 16 16 16 15 15 15 15 14 14 14 13 13 13 13 12 12 12 12 12 11 11 11 11 11 11 11 11 11 11 11 12
19 19 19 19 18 18 18 18 18 18 17 17 16 16 15 15 15 15 14 14 14 13 13 13 13 12 12 12 12 11 11 11 11 11 11 11 11 10 10 10 10 10 11
19 19 19 19 19 19 18 18 18 18 17 17 16 16 15 15 15 14 14 14 13 13 13 13 12 12 12 12 11 11 11 11 11 11 10 10 10 10 10 10 10 10 10
20 20 20 20 20 19 19 18 18 18 17 17 16 16 15 15 14 14 14 14 13 13 13 12 12 12 12 11 11 11 11 11 11 10 10 10 10 10 10 10 10 10 10
21 20 20 20 20 19 19 19 18 18 17 17 16 16 15 15 14 14 14 14 13 13 13 12 12 12 12 11 11 11 11 11 11 10 10 10 10 10 10 10 10 10 9
21 21 21 20 20 20 19 19 19 18 17 17 16 16 15 15 15 14 14 14 13 13 13 12 12 12 12 12 11 11 11 11 11 10 10 10 10 10 10 10 10 9 9
22 21 21 21 21 20 20 19 19 18 18 17 16 16 15 15 15 14 14 14 13 13 13 13 12 12 12 12 11 11 11 11 11 10 10 10 10 10 10 10 10 9 9
22 22 22 21 21 21 20 20 19 19 18 17 17 16 16 16 15 15 14 14 14 13 13 13 13 12 12 12 12 11 11 11 11 10 10 10 10 10 10 9 9 9 9
21 22 22 22 22 21 21 20 19 19 18 17 17 17 16 16 15 15 15 14 14 14 13 13 13 12 12 12 12 11 11 11 11 10 10 10 10 10 9 9 9 9 9
22 22 22 22 22 21 21 20 20 19 18 18 17 17 16 16 16 15 15 14 14 14 13 13 13 13 12 12 12 11 11 11 11 11 10 10 10 10 9 9 9 9 9
23 23 23 23 22 22 21 21 20 19 19 18 17 17 17 16 16 15 15 15 14 14 13 13 13 13 12 12 12 11 11 11 11 10 10 10 10 10 9 9 9 9 8
23 23 23 23 22 22 21 21 20 19 19 18 17 17 17 16 16 15 15 15 14 14 13 13 13 13 12 12 12 11 11 11 11 11 10 10 10 10 9 9 9 9 9
23 23 23 23 22 22 21 20 20 19 18 18 18 17 17 16 16 16 15 15 14 14 13 13 13 12 12 12 12 11 11 11 11 11 10 10 10 10 9 9 9 9 9
23 23 22 22 22 21 21 20 19 19 19 18 18 17 17 16 16 16 15 15 14 14 13 13 13 12 12 12 12 11 11 11 11 11 10 10 10 10 9 9 9 9 9
22 22 22 22 22 21 20 20 19 19 19 18 18 17 17 16 16 16 15 15 14 14 13 13 13 12 12 12 12 11 11 11 11 11 11 10 10 10 9 9 9 9 9
22 22 22 21 21 20 19 19 19 19 18 18 17 17 17 16 16 15 15 14 14 13 13 13 13 13 12 12 12 11 11 11 11 11 10 10 10 10 9 9 9 9 8
21 21 21 20 20 19 19 19 18 18 17 17 17 16 16 16 15 15 14 14 14 13 13 13 13 13 12 12 12 11 11 11 11 11 10 10 10 10 9 9 9 9 8
20 20 20 19 19 19 18 18 17 17 17 17 16 16 15 15 15 14 14 14 13 13 13 13 13 12 12 12 12 12 11 11 11 11 10 10 10 10 9 9 9 9 9
19 19 19 18 18 17 17 17 16 16 16 16 15 15 15 15 14 14 14 14 13 13 13 12 12 12 12 12 12 11 11 11 11 10 10 10 10 10 10 9 9 9 9
17 17 17 17 17 16 16 16 16 15 15 15 15 14 14 14 14 13 13 13 13 12 12 12 12 12 12 11 11 11 11 11 11 10 10 10 10 10 10 9 9 9 9
Wind_Speed
5 5 5 6 7 7 6 6 6 6 6 4 4 4 2 2 2 2 3 4 5 6 6 4 4 4 3 2 2 1 2 2 2 2 3 3 3 2 2 3 2 3 4
5 6 6 6 7 7 7 7 7 6 5 4 3 3 3 3 2 2 3 4 4 5 5 5 4 3 3 3 2 2 1 2 2 1 1 3 4 3 3 3 3 4 4
8 7 6 6 8 8 8 8 7 6 5 5 4 4 4 3 2 2 2 2 3 4 5 5 5 4 3 2 1 2 2 1 1 1 2 1 1 3 3 3 3 4 4
7 7 8 7 8 7 7 7 7 6 5 6 6 6 4 3 2 1 1 2 3 4 4 5 5 4 3 2 1 2 1 2 0 1 0 1 2 1 3 3 3 5 4
8 8 9 9 7 7 7 7 7 6 5 6 7 6 5 3 3 2 3 2 3 3 4 5 5 4 2 2 1 2 1 1 1 1 0 0 0 1 2 3 4 4 4
9 8 7 7 6 7 7 7 8 6 6 6 7 7 7 6 5 4 3 2 2 2 3 4 4 3 2 2 2 2 2 1 1 1 1 1 1 2 2 3 3 4 4
9 10 9 9 8 9 9 8 8 7 6 7 6 7 7 7 6 5 4 3 2 1 1 2 2 2 2 2 2 1 1 1 2 2 2 2 2 2 2 2 3 3 3
10 11 11 11 10 10 9 9 9 8 7 7 6 6 6 5 4 5 4 4 3 3 2 2 2 2 2 1 2 1 1 1 2 2 2 2 3 3 3 3 2 3 3
11 11 10 10 10 11 10 11 10 8 8 8 7 6 6 6 5 5 4 3 3 2 3 2 2 1 1 2 1 1 2 1 2 2 3 2 2 2 3 4 4 3 4
10 11 10 11 10 10 9 9 9 9 8 8 7 6 6 6 5 5 5 4 4 3 3 3 2 2 2 2 2 2 2 2 3 2 3 3 3 3 3 3 4 4 4
12 12 11 10 9 9 9 9 9 8 8 8 7 6 6 6 5 5 6 5 4 4 4 4 3 3 3 2 2 3 3 3 4 3 4 5 4 3 3 3 3 4 4
12 11 10 10 10 10 10 10 10 9 9 8 7 7 6 6 6 6 6 5 5 5 5 4 4 4 4 3 4 5 4 4 5 5 5 5 4 4 4 3 4 5 5
10 9 9 11 12 12 11 11 11 11 9 8 8 7 7 7 7 7 6 5 5 5 4 4 5 5 5 4 5 5 5 6 6 6 6 6 5 6 5 5 5 5 5
11 11 11 12 12 12 12 12 11 10 9 9 9 9 9 9 8 7 6 6 6 5 5 5 5 5 5 5 5 5 6 6 6 6 6 7 7 7 7 6 7 6 6
10 12 13 12 11 11 11 11 11 10 10 10 10 10 9 8 7 7 7 6 6 6 6 5 5 5 5 6 6 6 6 6 6 7 7 7 9 10 8 7 7 7 6
12 13 12 12 13 14 13 12 11 11 10 11 11 10 8 8 8 8 7 6 6 6 5 6 6 6 6 8 9 7 7 7 7 8 8 8 9 10 10 11 11 9 8
12 13 14 14 15 15 14 14 13 10 11 11 10 9 9 9 9 8 7 7 7 6 6 6 6 8 9 11 12 11 8 8 8 9 8 8 8 8 7 9 10 10 11
10 11 11 12 11 11 11 10 9 10 11 10 10 9 9 9 8 7 8 7 6 6 6 7 7 8 10 12 12 12 8 9 10 10 10 10 10 9 8 8 8 9 9
9 10 10 9 8 9 10 10 9 10 10 11 11 10 10 10 9 9 9 7 6 6 7 6 7 8 10 12 13 11 6 8 10 10 10 10 11 12 11 8 9 10 10
4 5 6 6 8 8 10 11 10 10 12 13 11 9 9 10 10 10 8 6 6 7 7 7 8 9 10 12 13 10 6 8 9 9 9 12 13 14 12 9 9 11 12
3 5 7 7 8 9 11 11 10 12 13 9 7 7 8 9 8 7 6 5 6 6 7 8 8 9 11 12 14 12 7 8 9 8 8 8 12 14 14 11 10 13 12
3 4 5 4 4 8 10 10 11 10 6 6 6 6 7 7 6 6 6 5 6 6 7 7 8 8 9 11 12 14 14 12 9 10 9 9 12 13 13 11 12 15 12
4 3 4 5 4 6 9 9 7 5 6 6 5 5 5 5 5 6 6 5 5 6 7 7 8 8 7 8 14 15 15 15 11 10 13 13 13 12 11 13 14 11 8
4 4 6 6 4 4 5 4 4 6 6 5 4 3 4 4 4 4 5 6 6 7 7 8 8 9 8 8 8 7 8 10 11 10 11 12 12 11 12 11 10 8 8
5 5 6 5 4 3 3 3 4 6 5 4 3 3 3 4 4 5 6 7 8 8 9 8 8 8 9 11 12 8 7 7 8 6 5 6 6 7 8 8 8 7 7
5 6 6 5 4 4 3 2 3 4 4 3 2 2 3 3 3 4 5 9 11 13 15 15 13 10 14 16 15 14 15 14 10 6 7 9 9 9 9 9 9 8 8
Wind_Direction
156 156 154 143 138 138 138 134 131 133 131 123 120 118 120 108 99 107 120 126 134 138 134 126 116 104 99 94 88 88 58 27 5 14 344 337 343 349 350 341 348 346 334
153 152 152 153 154 156 154 148 151 151 147 135 127 124 120 106 93 86 87 98 124 144 148 140 130 121 113 92 77 86 89 29 30 66 40 351 346 348 359 356 9 359 357
171 165 163 163 158 164 167 162 160 155 144 128 112 98 80 68 64 59 58 48 101 132 135 142 136 132 128 126 117 116 122 102 23 52 125 124 279 313 327 351 5 0 2
179 171 170 169 171 168 160 156 155 146 139 140 142 144 142 141 152 133 101 61 72 99 120 134 137 134 130 136 145 127 125 135 124 16 46 181 184 232 319 325 341 350 353
187 183 181 178 173 165 158 155 144 140 143 146 147 140 129 129 116 101 98 75 54 73 103 126 134 137 138 143 132 121 127 144 171 190 186 107 86 186 217 293 321 331 325
187 183 178 168 166 164 156 152 147 147 150 149 148 147 144 142 135 131 127 103 70 55 85 116 125 133 142 152 154 147 148 158 168 183 192 193 202 208 207 248 288 305 305
180 178 176 175 176 171 163 159 157 160 160 155 155 155 154 155 158 158 160 156 147 141 146 122 130 145 165 168 159 163 181 184 191 203 211 214 223 213 202 226 262 282 297
180 183 183 181 181 177 171 167 170 169 167 165 164 157 156 156 161 167 166 172 181 191 185 162 171 182 180 173 166 188 221 208 220 234 225 229 238 218 207 209 220 276 291
185 189 186 183 181 180 180 177 173 171 173 171 164 163 165 166 171 171 169 178 192 199 188 186 194 212 209 201 188 219 243 233 240 247 246 245 252 235 229 224 214 230 276
189 191 189 189 187 184 180 173 173 177 175 173 173 176 177 178 174 171 186 196 203 199 193 207 218 230 232 218 208 237 246 242 252 244 244 249 253 253 241 231 227 224 240
195 195 194 191 182 175 174 178 178 174 175 179 178 174 179 179 178 189 201 201 203 204 209 216 221 232 241 235 226 244 248 250 261 260 251 259 258 259 257 244 235 231 226
198 194 187 178 177 180 181 184 183 182 184 179 176 181 180 178 187 202 208 204 209 213 214 216 223 237 242 238 234 248 251 249 257 259 256 263 264 257 257 251 250 248 234
194 185 179 183 186 187 186 188 188 188 181 173 176 181 185 189 200 208 208 207 212 218 219 218 230 242 248 246 244 243 250 250 251 252 250 257 257 262 260 255 256 258 257
190 187 190 192 191 189 188 189 190 185 177 175 180 190 197 200 204 207 209 211 213 220 227 228 236 244 250 252 252 249 252 253 254 252 250 254 251 255 261 261 258 259 262
193 194 197 196 190 187 187 189 189 183 178 178 190 202 202 199 200 207 213 214 217 226 227 232 244 248 249 249 246 247 250 250 259 261 258 257 257 254 253 257 257 254 258
203 200 197 193 191 192 192 190 190 185 178 186 199 201 195 197 204 211 211 212 221 225 223 231 240 249 252 254 254 249 251 253 257 265 268 268 267 267 268 266 262 250 250
204 199 197 197 197 196 190 191 192 179 179 191 197 196 196 201 208 209 206 215 220 221 228 235 238 248 256 260 262 258 249 250 254 257 263 269 267 264 269 274 277 270 258
202 203 201 200 198 190 183 179 168 172 183 192 198 197 197 205 206 203 211 217 214 220 229 237 240 248 258 258 260 262 254 253 255 253 253 257 266 266 260 269 275 275 271
199 200 198 194 181 177 171 161 167 175 186 199 204 200 197 203 202 208 216 213 210 222 227 235 237 245 259 260 260 257 251 255 260 259 253 250 257 260 255 258 267 276 278
188 181 167 157 164 169 157 161 174 181 198 206 206 199 195 199 204 212 213 207 210 224 230 240 241 242 254 261 260 252 241 254 262 264 258 248 247 254 253 249 254 267 275
144 149 154 167 178 161 156 172 182 200 208 199 189 188 194 200 206 207 206 206 214 226 235 246 252 249 251 259 260 251 230 240 254 261 263 257 245 248 251 245 245 252 262
86 125 146 163 151 152 166 181 199 207 181 167 180 193 198 202 205 202 209 207 212 229 242 250 263 261 255 251 257 253 239 231 241 253 257 256 253 252 254 252 249 252 259
79 101 130 132 134 160 172 190 202 161 152 165 187 198 201 205 199 201 212 213 215 230 244 247 257 267 266 258 251 254 252 240 236 248 248 252 257 261 262 256 254 258 257
78 91 104 113 121 144 163 172 145 144 150 169 190 194 199 210 212 213 217 220 225 233 243 249 255 263 268 268 263 256 256 251 245 250 255 258 261 259 259 265 264 255 247
67 85 98 101 101 107 110 109 125 138 149 165 181 194 204 212 224 229 230 231 233 229 234 245 247 254 264 261 247 245 252 247 245 244 251 257 260 262 262 263 262 258 249
69 77 80 83 88 99 97 103 127 137 147 158 181 205 218 226 237 253 269 250 247 253 245 245 247 250 248 261 267 260 254 254 245 222 244 254 255 257 260 264 266 262 254
Height
1515 1517 1519 1521 1524 1528 1532 1535 1538 1541 1543 1546 1548 1550 1551 1553 1555 1556 1557 1558 1558 1559 1560 1560 1561 1561 1561 1561 1561 1561 1561 1560 1560 1560 1559 1558 1558 1558 1558 1558 1558 1559 1559
1515 1517 1520 1521 1524 1528 1532 1535 1538 1541 1543 1546 1548 1550 1552 1553 1554 1555 1556 1557 1558 1558 1558 1559 1560 1560 1560 1560 1560 1559 1559 1559 1558 1558 1557 1557 1558 1557 1556 1556 1556 1556 1557
1515 1517 1520 1522 1525 1529 1532 1535 1538 1541 1543 1545 1548 1550 1551 1553 1554 1555 1556 1556 1557 1557 1558 1558 1559 1559 1559 1558 1558 1558 1557 1557 1557 1556 1557 1556 1555 1555 1555 1555 1555 1555 1555
1514 1517 1519 1522 1525 1529 1532 1535 1538 1541 1543 1545 1547 1549 1551 1552 1553 1554 1555 1555 1556 1556 1556 1557 1557 1557 1557 1557 1556 1556 1556 1555 1555 1555 1555 1555 1555 1555 1553 1553 1553 1553 1553
1514 1516 1519 1521 1525 1528 1532 1535 1538 1540 1542 1545 1546 1548 1550 1551 1552 1553 1554 1554 1555 1555 1555 1555 1555 1555 1555 1555 1554 1554 1554 1553 1553 1553 1553 1553 1552 1552 1552 1551 1551 1551 1551
1512 1515 1518 1521 1525 1528 1531 1534 1537 1539 1541 1544 1545 1547 1549 1550 1551 1551 1552 1553 1553 1553 1553 1553 1553 1553 1553 1553 1552 1552 1551 1551 1551 1550 1550 1550 1550 1550 1550 1549 1548 1547 1548
1509 1513 1516 1520 1523 1527 1530 1533 1536 1538 1540 1542 1544 1546 1547 1548 1549 1550 1551 1551 1551 1552 1552 1552 1552 1551 1551 1551 1550 1550 1549 1549 1548 1548 1548 1548 1548 1548 1547 1546 1545 1544 1544
1507 1511 1514 1518 1522 1525 1529 1532 1534 1537 1539 1541 1543 1545 1546 1547 1548 1549 1549 1550 1550 1550 1550 1550 1550 1549 1549 1548 1548 1547 1547 1547 1546 1546 1546 1545 1545 1545 1544 1544 1543 1542 1541
1506 1509 1513 1517 1520 1524 1527 1530 1533 1535 1538 1540 1542 1543 1545 1545 1546 1547 1548 1548 1548 1548 1548 1548 1548 1547 1547 1546 1546 1545 1545 1544 1544 1544 1543 1543 1543 1542 1542 1541 1541 1541 1538
1503 1507 1511 1515 1518 1522 1525 1529 1531 1534 1536 1538 1540 1542 1543 1544 1545 1546 1546 1546 1546 1546 1546 1546 1546 1545 1545 1544 1544 1543 1543 1542 1542 1541 1541 1540 1540 1539 1539 1538 1538 1537 1536
1499 1504 1508 1512 1516 1520 1523 1526 1529 1532 1534 1536 1538 1540 1541 1542 1543 1544 1544 1544 1544 1544 1544 1544 1543 1543 1543 1542 1541 1541 1540 1540 1539 1539 1538 1538 1537 1536 1536 1535 1534 1533 1532
1496 1500 1505 1509 1513 1517 1520 1524 1527 1529 1532 1534 1536 1538 1539 1540 1541 1542 1542 1542 1542 1542 1542 1542 1541 1541 1540 1540 1539 1538 1538 1537 1537 1536 1535 1534 1534 1533 1532 1531 1530 1529 1528
1493 1497 1502 1505 1509 1513 1517 1520 1524 1526 1529 1532 1533 1535 1536 1538 1538 1539 1540 1540 1540 1540 1540 1540 1539 1539 1538 1537 1536 1536 1535 1534 1533 1533 1532 1531 1530 1529 1528 1527 1526 1525 1524
1489 1493 1497 1501 1505 1509 1513 1517 1520 1523 1526 1528 1530 1532 1534 1535 1536 1537 1537 1537 1538 1538 1538 1537 1537 1536 1535 1534 1534 1533 1532 1531 1530 1529 1528 1527 1526 1524 1523 1522 1521 1520 1518
1484 1488 1491 1495 1500 1504 1508 1512 1516 1519 1522 1525 1527 1529 1531 1532 1533 1534 1534 1535 1535 1535 1535 1534 1534 1533 1532 1531 1530 1529 1528 1527 1526 1525 1524 1522 1521 1520 1518 1517 1516 1515 1513
1479 1482 1486 1490 1494 1499 1503 1507 1511 1515 1518 1520 1523 1525 1527 1528 1530 1531 1531 1531 1531 1531 1531 1531 1530 1529 1528 1528 1527 1526 1524 1523 1522 1521 1519 1518 1517 1515 1514 1512 1511 1510 1508
1474 1477 1481 1484 1489 1493 1498 1503 1507 1511 1513 1516 1519 1521 1523 1524 1526 1527 1527 1528 1528 1528 1527 1527 1526 1525 1525 1524 1523 1522 1520 1519 1518 1516 1515 1513 1512 1511 1509 1508 1506 1505 1504
1470 1473 1477 1481 1485 1490 1494 1499 1503 1506 1509 1512 1514 1517 1518 1520 1522 1523 1523 1524 1524 1524 1523 1523 1522 1521 1520 1520 1518 1517 1516 1514 1513 1512 1510 1509 1507 1506 1504 1502 1501 1500 1498
1467 1470 1474 1478 1481 1486 1491 1495 1499 1502 1505 1507 1510 1512 1514 1516 1517 1518 1519 1519 1519 1519 1519 1518 1518 1517 1516 1515 1514 1513 1511 1509 1508 1507 1505 1504 1502 1501 1499 1497 1495 1494 1492
1465 1468 1472 1475 1479 1483 1487 1491 1495 1498 1500 1502 1505 1507 1509 1511 1512 1513 1514 1515 1515 1515 1514 1514 1513 1512 1511 1510 1509 1508 1506 1504 1502 1501 1500 1498 1497 1495 1494 1492 1490 1487 1486
1464 1467 1470 1473 1476 1480 1484 1487 1491 1493 1495 1498 1501 1503 1505 1507 1508 1509 1509 1510 1510 1510 1509 1508 1508 1507 1506 1505 1504 1502 1500 1498 1497 1495 1494 1492 1491 1489 1488 1486 1484 1482 1480
1463 1465 1467 1470 1474 1477 1481 1484 1486 1489 1492 1495 1497 1499 1501 1502 1503 1504 1504 1505 1505 1504 1504 1503 1502 1501 1500 1499 1498 1497 1495 1493 1491 1489 1488 1486 1485 1483 1482 1480 1478 1476 1473
1462 1464 1466 1469 1472 1475 1478 1480 1483 1486 1489 1491 1493 1495 1497 1498 1498 1499 1499 1499 1499 1498 1498 1497 1496 1495 1494 1493 1492 1490 1489 1487 1484 1482 1481 1480 1478 1476 1475 1473 1471 1469 1467
1462 1464 1466 1468 1470 1472 1474 1477 1480 1483 1485 1487 1489 1491 1492 1493 1493 1494 1494 1493 1493 1492 1491 1490 1489 1488 1487 1486 1485 1483 1482 1480 1478 1476 1474 1473 1471 1469 1467 1466 1464 1462 1460
1463 1464 1466 1467 1469 1471 1473 1475 1478 1480 1482 1483 1485 1486 1487 1488 1488 1488 1488 1487 1487 1486 1485 1483 1482 1480 1479 1478 1478 1476 1474 1473 1471 1469 1467 1465 1464 1462 1460 1459 1457 1455 1453
1464 1465 1466 1468 1469 1471 1473 1475 1476 1478 1479 1480 1481 1482 1483 1483 1483 1483 1482 1481 1481 1480 1478 1477 1476 1473 1472 1471 1470 1468 1467 1465 1463 1461 1458 1457 1456 1454 1452 1451 1449 1447 1445